[[{"header":{"parameterUnit":"m.s-1","parameterCategory":1,"la1":30.2992,"la2":30.254,"lo1":-89.0895,"lo2":-89.0443,"dy":0.0025,"dx":0.0025,"nx":19,"ny":19,"refTime":"2026-05-21T09:00:00:Z","depth":0,"parameterNumber":2,"parameterNumberName":"U-component_of_WINDS"},"data":[0,0,0,-2.8891,-2.8894,-2.9044,-2.9045,-2.9227,-2.9228,0,0,0,0,0,0,0,0,0,0,0,-2.884,-2.8841,-2.8891,-2.8894,-2.9044,-2.9045,-2.9226,-2.9228,0,0,0,0,0,0,0,0,0,0,0,-2.8839,-2.884,-2.8842,-2.8895,-2.9044,-2.9045,-2.9226,-2.9117,0,0,0,0,0,0,0,0,0,0,-2.8973,-2.8919,-2.884,-2.8842,-2.8895,-2.9044,-2.9045,-2.9111,-2.9123,-2.9154,0,-2.9179,0,-2.9207,-2.924,-2.924,0,0,0,-2.8899,-2.8909,-2.8955,-2.8842,-2.8897,-2.9043,-2.8978,-2.9118,-2.9132,-2.917,-2.9182,-2.9189,-2.921,-2.9241,-2.9242,-2.9401,-2.9401,0,0,-2.8891,-2.8863,-2.8946,-2.8964,-2.8939,-2.8973,-2.8982,-2.9127,-2.9138,-2.9183,-2.9194,-2.9213,-2.9242,-2.9243,-2.94,-2.9401,0,0,0,-2.8864,-2.8857,-2.89,-2.8956,-2.8983,-2.8977,-2.8988,-2.9132,-2.9148,-2.9196,-2.9215,-2.9243,-2.9245,-2.94,-2.9401,-2.9397,0,0,0,-2.8859,-2.8841,-2.8897,-2.8881,-2.8981,-2.9059,-2.899,-2.9138,-2.9155,-2.9214,-2.9243,-2.9247,-2.9399,-2.94,-2.9396,-2.9399,0,0,0,-2.8832,-2.8838,-2.8858,-2.8879,-2.8943,-2.9058,-2.9082,-2.9142,-2.9167,-2.924,-2.9247,-2.9399,-2.94,-2.9395,-2.9398,-2.9431,0,0,0,-2.8796,-2.8853,-2.8857,-2.8929,-2.8941,-2.9054,-2.9082,-2.9168,-2.9231,-2.9244,-2.9399,-2.9401,-2.9394,-2.9397,-2.943,-2.9453,-2.9461,0,0,-2.8853,-2.8859,-2.8904,-2.8911,-2.9016,-2.9034,-2.9139,-2.9224,-2.9257,-2.9351,-2.9355,-2.9396,-2.9397,-2.9431,-2.9516,-2.9521,0,0,0,-2.8912,-2.8943,-2.8977,-2.9035,-2.9101,-2.9157,-2.9229,-2.926,-2.9341,-2.9299,-2.9419,-2.9421,-2.9442,-2.9454,-2.9459,-2.9478,-2.9406,-2.9405,-2.9405,-2.8952,-2.899,-2.9066,-2.9122,-2.9179,-2.9252,-2.9301,-2.9356,-2.938,-2.9407,-2.9435,-2.9481,-2.9494,-2.9498,-2.9518,-2.9452,-2.9452,-2.9452,-2.9452,-2.9037,-2.9086,-2.9116,-2.92,-2.924,-2.9312,-2.9385,-2.9399,-2.9471,-2.9464,-2.9484,-2.947,-2.9503,-2.9522,-2.9452,-2.9452,-2.9452,-2.9452,-2.9452,-2.9065,-2.9096,-2.9133,-2.922,-2.9284,-2.934,-2.9408,-2.9444,-2.9478,-2.9498,-2.953,-2.9531,-2.9534,-2.9512,-2.9512,-2.9512,-2.9512,-2.9512,-2.9512,-2.9079,-2.9121,-2.9173,-2.9247,-2.9289,-2.9349,-2.9423,-2.9466,-2.9522,-2.9543,-2.9543,-2.9562,-2.95,-2.9482,-2.9515,-2.9514,-2.9514,-2.9514,-2.9514,-2.9148,-2.9138,-2.9218,-2.926,-2.935,-2.941,-2.9455,-2.9538,-2.9579,-2.9611,-2.9628,-2.9576,-2.9585,-2.9581,-2.9567,-2.962,-2.962,-2.962,-2.962,-2.917,-2.9179,-2.9268,-2.9332,-2.9399,-2.9448,-2.9538,-2.9596,-2.9656,-2.9683,-2.9682,-2.9666,-2.9661,-2.9673,-2.9668,-2.9654,-2.9729,-2.9729,-2.9729,-2.9214,-2.9231,-2.9299,-2.9356,-2.9429,-2.9491,-2.9576,-2.9649,-2.9715,-2.9734,-2.9705,-2.9701,-2.9676,-2.9667,-2.9682,-2.9673,-2.9649,0,0]},{"header":{"parameterUnit":"m.s-1","parameterCategory":1,"la1":30.2992,"la2":30.254,"lo1":-89.0895,"lo2":-89.0443,"dy":0.0025,"dx":0.0025,"nx":19,"ny":19,"refTime":"2026-05-21T09:00:00:Z","depth":0,"parameterNumber":3,"parameterNumberName":"V-component_of_WINDS"},"data":[0,0,0,4.0486,4.0488,4.057,4.057,4.0687,4.0688,0,0,0,0,0,0,0,0,0,0,0,4.047,4.0471,4.0486,4.0489,4.057,4.057,4.0686,4.0688,0,0,0,0,0,0,0,0,0,0,0,4.047,4.0471,4.0472,4.0489,4.057,4.057,4.0686,4.062,0,0,0,0,0,0,0,0,0,0,4.0539,4.0532,4.0471,4.0472,4.0489,4.057,4.057,4.0617,4.0624,4.0655,0,4.0685,0,4.0689,4.0696,4.0697,0,0,0,4.0482,4.0526,4.0541,4.0473,4.049,4.057,4.0531,4.0621,4.0629,4.0665,4.0687,4.0691,4.0691,4.0697,4.0698,4.0901,4.0902,0,0,4.0478,4.0489,4.0535,4.0547,4.0536,4.0529,4.0534,4.0626,4.065,4.0687,4.0693,4.0693,4.0698,4.0699,4.09,4.0901,0,0,0,4.0469,4.0486,4.0498,4.0542,4.0556,4.0531,4.0537,4.0646,4.0649,4.0695,4.0694,4.0699,4.07,4.0898,4.09,4.0975,0,0,0,4.0466,4.0481,4.0497,4.0505,4.0555,4.0602,4.0556,4.0642,4.0652,4.0693,4.0699,4.0702,4.0897,4.0899,4.097,4.1008,0,0,0,4.0462,4.048,4.0495,4.0505,4.0541,4.06,4.0608,4.0644,4.0653,4.0697,4.0702,4.0896,4.0899,4.0965,4.1,4.1066,0,0,0,4.0461,4.0558,4.0497,4.0605,4.054,4.0646,4.0608,4.0685,4.0732,4.0699,4.0897,4.09,4.0964,4.0996,4.1061,4.1125,4.1152,0,0,4.059,4.0574,4.0637,4.0584,4.0705,4.0632,4.0763,4.0794,4.0787,4.0863,4.0868,4.0971,4.1,4.1065,4.1297,4.1319,0,0,0,4.0682,4.0728,4.0757,4.0803,4.0831,4.0857,4.0868,4.0879,4.0944,4.0829,4.1011,4.1028,4.1066,4.1096,4.1114,4.1147,4.0914,4.0913,4.0913,4.0882,4.0869,4.0973,4.0971,4.1016,4.1026,4.1062,4.1079,4.1051,4.1095,4.1118,4.126,4.1296,4.1309,4.1343,4.1149,4.1149,4.115,4.115,4.1072,4.1135,4.1098,4.1185,4.1171,4.1244,4.1258,4.1236,4.1302,4.1241,4.1274,4.121,4.1333,4.1363,4.1155,4.1154,4.1154,4.1153,4.1153,4.1202,4.1231,4.1244,4.1311,4.1363,4.1356,4.1423,4.1406,4.1391,4.1423,4.1447,4.1446,4.1444,4.1435,4.1436,4.1436,4.1437,4.1437,4.1438,4.1333,4.1346,4.1404,4.1443,4.1471,4.1506,4.1518,4.1546,4.1572,4.1554,4.1555,4.1524,4.1348,4.1305,4.1445,4.1444,4.1443,4.1442,4.1442,4.1533,4.1486,4.1576,4.1604,4.1649,4.1703,4.1681,4.1738,4.1758,4.1792,4.1754,4.1626,4.1608,4.1593,4.1558,4.1755,4.1755,4.1755,4.1755,4.1645,4.1634,4.1724,4.1771,4.1815,4.1805,4.1908,4.1918,4.1922,4.1933,4.1902,4.1853,4.1838,4.1829,4.1809,4.1776,4.2025,4.2025,4.2025,4.1768,4.1761,4.1852,4.1856,4.1889,4.1919,4.2015,4.2071,4.2064,4.2036,4.1943,4.1931,4.1852,4.1826,4.1797,4.1767,4.1705,0,0]}]]